| time (UTC) | temp C | wind direction | speed KPH | gust KPH | rain 1hr cm | rain 24hr cm | rain mn cm | humidity % | barometer mb |
| 20260906073023 | 10 | 113 | 0.0 | 3.2 | 0.00 | 0.51 | 0.00 | 85 | 1016.9 |
| 20260906071522 | 10 | 103 | 0.0 | 3.2 | 0.00 | 0.51 | 0.00 | 86 | 1016.8 |
| 20260906070018 | 10 | 109 | 0.0 | 0.0 | 0.00 | 0.51 | 0.00 | 83 | 1016.9 |
| 20260906064517 | 11 | 108 | 0.0 | 3.2 | 0.00 | 0.51 | 0.51 | 83 | 1016.8 |
| 20260906063017 | 10 | 78 | 0.0 | 0.0 | 0.00 | 0.51 | 0.51 | 88 | 1016.9 |
| 20260906061515 | 10 | 78 | 0.0 | 0.0 | 0.00 | 0.51 | 0.51 | 86 | 1017.0 |
| 20260906060024 | 10 | 78 | 0.0 | 1.6 | 0.00 | 0.51 | 0.51 | 85 | 1017.0 |
| 20260906054513 | 10 | 78 | 0.0 | 1.6 | 0.00 | 0.51 | 0.51 | 84 | 1017.1 |
| 20260906053020 | 11 | 78 | 0.0 | 1.6 | 0.00 | 0.51 | 0.51 | 83 | 1017.2 |
| 20260906051515 | 12 | 94 | 0.0 | 0.0 | 0.00 | 0.51 | 0.51 | 81 | 1017.2 |
| 20260906050029 | 12 | 94 | 0.0 | 1.6 | 0.00 | 0.51 | 0.51 | 79 | 1017.2 |
| 20260906044520 | 13 | 109 | 0.0 | 4.8 | 0.00 | 0.51 | 0.51 | 76 | 1017.2 |
| 20260906043013 | 13 | 91 | 0.0 | 3.2 | 0.00 | 0.51 | 0.51 | 74 | 1017.2 |
| 20260906041514 | 13 | 102 | 0.0 | 1.6 | 0.00 | 0.51 | 0.51 | 74 | 1017.2 |
| 20260906040013 | 13 | 148 | 0.0 | 0.0 | 0.00 | 0.51 | 0.51 | 73 | 1017.1 |
| 20260906034510 | 13 | 148 | 0.0 | 0.0 | 0.00 | 0.51 | 0.51 | 71 | 1016.9 |
| 20260906033024 | 14 | 149 | 0.0 | 0.0 | 0.00 | 0.51 | 0.51 | 71 | 1016.6 |
| 20260906031513 | 15 | 186 | 0.0 | 0.0 | 0.00 | 0.51 | 0.51 | 69 | 1016.5 |
| 20260906030012 | 15 | 186 | 0.0 | 0.0 | 0.00 | 0.51 | 0.51 | 66 | 1016.5 |
| 20260906024507 | 16 | 186 | 0.0 | 0.0 | 0.00 | 0.51 | 0.51 | 63 | 1016.4 |
| 20260906023007 | 17 | 186 | 0.0 | 1.6 | 0.00 | 0.51 | 0.51 | 59 | 1016.4 |
| 20260906021507 | 17 | 191 | 0.0 | 3.2 | 0.00 | 0.51 | 0.51 | 56 | 1016.2 |
| 20260906020006 | 18 | 174 | 0.0 | 6.4 | 0.00 | 0.51 | 0.51 | 53 | 1016.2 |
| 20260906014504 | 19 | 110 | 0.0 | 3.2 | 0.00 | 0.51 | 0.51 | 51 | 1016.3 |
| 20260906013008 | 20 | 114 | 0.0 | 4.8 | 0.00 | 0.51 | 0.51 | 50 | 1016.5 |
| 20260906011502 | 20 | 86 | 0.0 | 3.2 | 0.00 | 0.51 | 0.51 | 49 | 1016.4 |
| 20260906010001 | 20 | 101 | 1.6 | 6.4 | 0.00 | 0.51 | 0.51 | 49 | 1016.5 |
| 20260906004600 | 20 | 113 | 3.2 | 6.4 | 0.00 | 0.51 | 0.51 | 49 | 1016.5 |
| 20260906003058 | 20 | 107 | 1.6 | 8.0 | 0.00 | 0.51 | 0.51 | 49 | 1016.5 |
| 20260906001557 | 20 | 155 | 1.6 | 3.2 | 0.00 | 0.51 | 0.51 | 50 | 1016.4 |
| 20260906000056 | 20 | 108 | 3.2 | 9.7 | 0.00 | 0.51 | 0.51 | 50 | 1016.6 |
| 20260905234556 | 19 | 101 | 3.2 | 9.7 | 0.00 | 0.51 | 0.51 | 51 | 1016.8 |
| 20260905233052 | 19 | 70 | 4.8 | 11.3 | 0.00 | 0.51 | 0.51 | 52 | 1016.9 |
| 20260905231550 | 18 | 114 | 4.8 | 9.7 | 0.00 | 0.51 | 0.51 | 53 | 1017.0 |
| 20260905230053 | 18 | 115 | 1.6 | 12.9 | 0.00 | 0.51 | 0.51 | 54 | 1017.0 |
| 20260905224601 | 18 | 81 | 4.8 | 11.3 | 0.00 | 0.51 | 0.51 | 57 | 1017.2 |
| 20260905223044 | 17 | 117 | 6.4 | 12.9 | 0.00 | 0.51 | 0.51 | 58 | 1017.2 |
| 20260905221555 | 17 | 129 | 3.2 | 12.9 | 0.00 | 0.51 | 0.51 | 61 | 1017.4 |
| 20260905220041 | 17 | 102 | 4.8 | 11.3 | 0.00 | 0.51 | 0.51 | 64 | 1017.5 |
| 20260905214536 | 16 | 90 | 4.8 | 16.1 | 0.00 | 0.51 | 0.51 | 65 | 1017.7 |
| 20260905213034 | 16 | 103 | 3.2 | 12.9 | 0.00 | 0.51 | 0.51 | 68 | 1017.8 |
| 20260905211534 | 16 | 105 | 1.6 | 8.0 | 0.00 | 0.51 | 0.51 | 67 | 1018.1 |
| 20260905210033 | 16 | 113 | 3.2 | 12.9 | 0.00 | 0.51 | 0.51 | 65 | 1018.2 |
| 20260905204532 | 16 | 172 | 1.6 | 11.3 | 0.00 | 0.51 | 0.51 | 66 | 1018.2 |
| 20260905203033 | 16 | 260 | 1.6 | 12.9 | 0.00 | 0.51 | 0.51 | 70 | 1018.3 |
| 20260905201524 | 15 | 208 | 3.2 | 12.9 | 0.00 | 0.51 | 0.51 | 75 | 1018.4 |
| 20260905200025 | 14 | 103 | 0.0 | 9.7 | 0.00 | 0.51 | 0.51 | 79 | 1018.5 |
| 20260905194521 | 14 | 207 | 0.0 | 8.0 | 0.00 | 0.51 | 0.51 | 82 | 1018.7 |
| 20260905193017 | 13 | 108 | 3.2 | 6.4 | 0.08 | 0.51 | 0.51 | 88 | 1018.8 |
| 20260905191514 | 12 | 73 | 1.6 | 6.4 | 0.13 | 0.51 | 0.51 | 90 | 1018.9 |
| 20260905190013 | 12 | 111 | 1.6 | 6.4 | 0.13 | 0.51 | 0.51 | 90 | 1018.7 |
| 20260905184513 | 12 | 82 | 3.2 | 8.0 | 0.13 | 0.51 | 0.51 | 90 | 1018.9 |
| 20260905183012 | 12 | 103 | 3.2 | 11.3 | 0.10 | 0.43 | 0.43 | 89 | 1019.0 |
| 20260905181510 | 12 | 127 | 0.0 | 1.6 | 0.08 | 0.38 | 0.38 | 89 | 1019.3 |
| 20260905180010 | 12 | 176 | 0.0 | 0.0 | 0.10 | 0.38 | 0.38 | 88 | 1019.4 |
| 20260905174508 | 12 | 176 | 0.0 | 1.6 | 0.08 | 0.36 | 0.36 | 87 | 1019.3 |
| 20260905173007 | 12 | 205 | 0.0 | 1.6 | 0.03 | 0.30 | 0.30 | 87 | 1019.3 |
| 20260905171506 | 12 | 100 | 0.0 | 0.0 | 0.03 | 0.30 | 0.30 | 85 | 1019.3 |
| 20260905170006 | 12 | 100 | 0.0 | 3.2 | 0.00 | 0.28 | 0.28 | 85 | 1019.0 |
| 20260905164503 | 11 | 111 | 0.0 | 6.4 | 0.00 | 0.28 | 0.28 | 86 | 1019.0 |
| 20260905163002 | 11 | 134 | 0.0 | 6.4 | 0.00 | 0.28 | 0.28 | 86 | 1018.9 |
| 20260905161501 | 11 | 111 | 0.0 | 4.8 | 0.00 | 0.28 | 0.28 | 89 | 1018.8 |
| 20260905160134 | 11 | 110 | 0.0 | 3.2 | 0.00 | 0.28 | 0.28 | 91 | 1018.7 |
| 20260905154603 | 10 | 69 | 0.0 | 3.2 | 0.03 | 0.28 | 0.28 | 91 | 1018.6 |
| 20260905153058 | 10 | 69 | 0.0 | 1.6 | 0.13 | 0.28 | 0.28 | 92 | 1018.7 |
| 20260905151603 | 10 | 69 | 0.0 | 3.2 | 0.18 | 0.28 | 0.28 | 91 | 1018.8 |
| 20260905150055 | 10 | 94 | 1.6 | 8.0 | 0.18 | 0.28 | 0.28 | 90 | 1018.7 |
| 20260905144553 | 10 | 38 | 3.2 | 9.7 | 0.18 | 0.28 | 0.25 | 90 | 1018.6 |
| 20260905143153 | 10 | 123 | 4.8 | 8.0 | 0.08 | 0.18 | 0.15 | 89 | 1018.5 |
| 20260905141549 | 10 | 110 | 3.2 | 6.4 | 0.05 | 0.13 | 0.10 | 88 | 1018.6 |
| 20260905140047 | 10 | 103 | 0.0 | 4.8 | 0.08 | 0.13 | 0.10 | 88 | 1018.3 |
| 20260905134544 | 10 | 121 | 0.0 | 4.8 | 0.05 | 0.10 | 0.08 | 86 | 1018.1 |
| 20260905133043 | 10 | 115 | 0.0 | 1.6 | 0.05 | 0.10 | 0.08 | 86 | 1017.8 |
| 20260905131541 | 11 | 111 | 1.6 | 4.8 | 0.03 | 0.08 | 0.05 | 84 | 1017.9 |
| 20260905130040 | 11 | 80 | 3.2 | 8.0 | 0.00 | 0.05 | 0.03 | 83 | 1017.8 |
| 20260905124640 | 11 | 97 | 3.2 | 9.7 | 0.00 | 0.05 | 0.03 | 83 | 1017.4 |
| 20260905123037 | 11 | 102 | 0.0 | 1.6 | 0.00 | 0.05 | 0.03 | 84 | 1017.5 |
| 20260905121536 | 11 | 84 | 0.0 | 0.0 | 0.00 | 0.05 | 0.03 | 85 | 1017.6 |
| 20260905120035 | 11 | 127 | 0.0 | 3.2 | 0.00 | 0.05 | 0.03 | 84 | 1017.4 |
| 20260905114534 | 10 | 77 | 0.0 | 1.6 | 0.00 | 0.05 | 0.03 | 86 | 1017.4 |
| 20260905113032 | 10 | 77 | 0.0 | 1.6 | 0.03 | 0.05 | 0.03 | 87 | 1017.4 |
| 20260905111532 | 10 | 77 | 0.0 | 0.0 | 0.03 | 0.05 | 0.03 | 86 | 1017.2 |
| 20260905110129 | 10 | 77 | 0.0 | 1.6 | 0.03 | 0.05 | 0.03 | 86 | 1017.2 |
| 20260905104526 | 11 | 69 | 0.0 | 3.2 | 0.03 | 0.05 | 0.03 | 84 | 1017.1 |
| 20260905103027 | 11 | 89 | 0.0 | 1.6 | 0.00 | 0.03 | 0.00 | 80 | 1017.1 |
| 20260905101523 | 11 | 64 | 0.0 | 1.6 | 0.00 | 0.03 | 0.00 | 79 | 1017.1 |
| 20260905100022 | 11 | 110 | 0.0 | 1.6 | 0.00 | 0.03 | 0.00 | 79 | 1017.0 |
| 20260905094527 | 11 | 90 | 0.0 | 1.6 | 0.00 | 0.03 | 0.00 | 79 | 1017.1 |
| 20260905093020 | 11 | 110 | 0.0 | 1.6 | 0.00 | 0.03 | 0.00 | 79 | 1017.0 |
| 20260905091625 | 11 | 110 | 0.0 | 1.6 | 0.00 | 0.03 | 0.00 | 79 | 1017.1 |
| 20260905090018 | 11 | 82 | 0.0 | 1.6 | 0.00 | 0.03 | 0.00 | 79 | 1017.0 |
| 20260905084515 | 11 | 84 | 0.0 | 1.6 | 0.00 | 0.03 | 0.00 | 79 | 1016.9 |
| 20260905083012 | 12 | 109 | 0.0 | 0.0 | 0.00 | 0.03 | 0.00 | 77 | 1016.8 |
| 20260905081511 | 12 | 109 | 0.0 | 1.6 | 0.00 | 0.03 | 0.00 | 77 | 1016.7 |
| 20260905080009 | 12 | 99 | 0.0 | 1.6 | 0.00 | 0.03 | 0.00 | 76 | 1016.6 |
| 20260905074511 | 12 | 100 | 0.0 | 1.6 | 0.00 | 0.03 | 0.00 | 76 | 1016.5 |